Regional Weather Roundup
Issued by NWS

Home | Current Version | Previous Version | Text Only | Print | Product List | Glossary On
Versions: 1 2 3 4 5 6 7 8 9 10 11 12 13 14 15 16 17 18 19 20 21 22 23 24 25 26 27 28 29 30 31 32 33 34 35 36 37 38 39 40 41 42 43 44 45 46 47 48 49 50
000
ASUS43 KLMK 250702
RWRKY
KENTUCKY REGIONAL WEATHER ROUNDUP
NATIONAL WEATHER SERVICE LOUISVILLE KY
300 AM EDT WED APR 25 2018

NOTE "FAIR" INDICATES FEW OR NO CLOUDS BELOW 12,000 FEET
WITH NO SIGNIFICANT WEATHER AND/OR OBSTRUCTIONS TO VISIBILITY.

KYZ001>023-026-027-061>063-070>075-250800-
WESTERN AND SOUTH CENTRAL KENTUCKY

CITY           SKY/WX    TMP DP  RH WIND       PRES   REMARKS
PADUCAH        FAIR      53  51  93 CALM      29.97F
HENDERSON      FAIR      50  49  96 CALM      29.96S FOG
OWENSBORO      FAIR      53  52  96 CALM      29.95F FOG
HOPKINSVILLE   NOT AVBL
BOWLING GREEN  CLOUDY    56  54  93 NW5       29.94F
GLASGOW        NOT AVBL
$$

KYZ024-025-028>034-038-045-046-053-250800-
NORTH CENTRAL KENTUCKY

CITY           SKY/WX    TMP DP  RH WIND       PRES   REMARKS
LOUISVILLE/SDF CLOUDY    56  53  90 NW8       29.91F
LOUISVILLE/LOU CLOUDY    56  55  97 VRB3      29.92F
FORT KNOX      NOT AVBL
$$

KYZ035>037-039>044-047>052-055>060-089>105-250800-
NORTHEAST KENTUCKY

CITY           SKY/WX    TMP DP  RH WIND       PRES   REMARKS
LEXINGTON      CLOUDY    54  51  90 NW8       29.89F
COVINGTON      CLOUDY    53  51  93 NW10      29.89F
FRANKFORT      CLOUDY    54  51  90 NW6       29.89S
$$

KYZ054-064>069-076>088-106>120-250800-
SOUTHEAST KENTUCKY

CITY           SKY/WX    TMP DP  RH WIND       PRES   REMARKS
JACKSON        CLOUDY    54  51  90 NW6       29.86F
LONDON         CLOUDY    54  53  97 W6        29.88F
SOMERSET       NOT AVBL
MIDDLESBORO    HVY RAIN  54  54 100 N5        29.87F
MONTICELLO     CLOUDY    54  53  97 NW5       29.92F FOG
$$




USA.gov is the U.S. government's official web portal to all federal, state and local government web resources and services.